Home > Weather > Amersfoort > Past weeks

Flag for Netherlands Past Weather in Amersfoort, Netherlands — Yesterday and Last 2 Weeks

Now
66 °F

Broken clouds.


Feels Like: 66 °F
Forecast: 55 / 70 °F
Wind: 5 mph from Northwest

Location: Deelen

Current Time: Jul 25, 2016 at 10:21:15 PM

Latest Report: Jul 25, 2016 at 9:55 PM


Visibility: N/A

Pressure: 30.12 "Hg

Humidity: 73%

Dew Point: 57 °F

Location of AmersfoortLocation

Past Weather in Amersfoort — Graph

°F

Amersfoort Temperature Yesterday

Maximum temperature yesterday: 79 °F (at 5:25 PM)
Minimum temperature yesterday: 63 °F (at 2:25 AM)
Average temperature yesterday: 70 °F

High & Low Weather Summary for the Past Weeks

 TemperatureHumidityPressure
High91 °F (Jul 20, 2:55 PM)100% (Jul 13, 12:55 AM)30.27 "Hg (Jul 13, 12:55 AM)
Low43 °F (Jul 14, 4:55 AM)32% (Jul 20, 3:55 PM)29.74 "Hg (Jul 11, 2:55 AM)
Average66 °F76%30.04 "Hg
* Reported Jul 10 8:25 PM — Jul 25 8:55 PM, Amersfoort, Weather by CustomWeather, © 2016

Note: Actual official high and low records may vary slightly from our data, if they occured in-between our weather recording intervals... More about our weather records

Advertising

Amersfoort Weather History for the Previous 24 Hours

Scroll right to see more
 ConditionsComfort  
Time TempWeatherWind HumidityBarometerVisibility
8:55 PM
Mon, Jul 25
68 °FOvercast.5 mph73%30.09 "HgN/A
8:25 PM68 °FPartly sunny.7 mph73%30.09 "HgN/A
7:55 PM70 °FMore clouds than sun.7 mph69%30.09 "HgN/A
7:25 PM70 °FCloudy.6 mph73%30.09 "HgN/A
6:55 PM72 °FPassing clouds.8 mph69%30.07 "HgN/A
6:25 PM73 °FPartly sunny.7 mph69%30.07 "HgN/A
5:55 PM73 °FBroken clouds.8 mph74%30.07 "HgN/A
5:25 PM72 °FBroken clouds.7 mph78%30.07 "HgN/A
4:55 PM72 °FBroken clouds.10 mph78%30.07 "HgN/A
4:25 PM73 °FMostly cloudy.9 mph74%30.07 "HgN/A
3:55 PM73 °FMore clouds than sun.8 mph74%30.07 "HgN/A
3:25 PM72 °FBroken clouds.8 mph78%30.09 "HgN/A
2:55 PM70 °FBroken clouds.12 mph83%30.09 "HgN/A
2:25 PM70 °FMostly cloudy.10 mph78%30.09 "HgN/A
1:55 PM70 °FMostly cloudy.12 mph78%30.09 "HgN/A
1:25 PM70 °FMostly cloudy.8 mph83%30.09 "HgN/A
12:55 PM68 °FMostly cloudy.8 mph83%30.09 "HgN/A
12:25 PM70 °FMore clouds than sun.7 mph78%30.07 "HgN/A
11:55 AM70 °FMostly cloudy.9 mph78%30.07 "HgN/A
11:25 AM68 °FMostly cloudy.12 mph83%30.07 "HgN/A
10:55 AM70 °FMostly cloudy.8 mph78%30.07 "HgN/A
10:25 AM70 °FBroken clouds.9 mph78%30.07 "HgN/A
9:55 AM68 °FMostly cloudy.8 mph83%30.07 "HgN/A
9:25 AM68 °FPartly sunny.7 mph83%30.07 "HgN/A
8:55 AM66 °FBroken clouds.7 mph88%30.07 "HgN/A
8:25 AM64 °FOvercast.7 mph88%30.07 "HgN/A
7:55 AM64 °FOvercast.6 mph88%30.07 "HgN/A
7:25 AM64 °FBroken clouds.6 mph88%30.07 "HgN/A
6:55 AM63 °FOvercast.2 mph94%30.07 "HgN/A
6:25 AM61 °FPassing clouds.1 mph94%30.07 "HgN/A
5:55 AM61 °FPartly cloudy.2 mph88%30.07 "HgN/A
5:25 AM59 °FMostly cloudy.3 mph94%30.07 "HgN/A
4:55 AM57 °FFog.3 mph94%30.07 "Hg6 mi
4:25 AM59 °FPassing clouds.3 mph94%30.07 "HgN/A
3:55 AM59 °FFog.2 mph100%30.07 "Hg4 mi
3:25 AM59 °FFog.No wind100%30.07 "Hg2 mi
2:55 AM59 °FFog.1 mph100%30.07 "Hg3 mi
2:25 AM61 °FFog.3 mph94%30.07 "Hg6 mi
1:55 AM61 °FFog.2 mph94%30.09 "Hg4 mi
1:25 AM63 °FFog.2 mph94%30.09 "Hg6 mi
12:55 AM63 °FFog.1 mph94%30.09 "Hg6 mi
12:25 AM64 °FPassing clouds.1 mph88%30.09 "HgN/A
11:55 PM
Sun, Jul 24
64 °FPassing clouds.1 mph94%30.09 "HgN/A
11:25 PM66 °FMild.5 mph88%30.09 "HgN/A
10:55 PM66 °FPassing clouds.2 mph88%30.09 "HgN/A
10:25 PM66 °FOvercast.2 mph88%30.09 "HgN/A
Weather by CustomWeather, © 2016

See weather overviewHow to use our weather pages